Location: Gunderslevlille
(55.3283°N, 11.6402°E)
Time: 01:09:55
(UTC+00:00)

Daily predictions for brighter satellites

Satellite Brightness Start Highest point End
(mag) Time Altitude Azimuth Time Altitude Azimuth Time Altitude Azimuth
STARLINK-1209 3.6 00:00:03 10° W 00:02:56 32° SSW 00:05:48 10° SE
STARLINK-1247 3.3 00:00:42 10° W 00:03:38 37° SSW 00:06:34 10° SE
STARLINK-1227 3.3 00:01:10 10° W 00:04:05 37° SSW 00:06:58 10° SE
ATLAS CENTAUR R/B 0.8 00:02:07 10° WNW 00:04:12 67° SSW 00:07:55 10° ESE
STARLINK-1208 3.6 00:00:08 10° W 00:04:14 59° S 00:08:19 10° ESE
STARLINK-1226 3.3 00:02:01 10° W 00:04:56 37° SSW 00:07:51 10° SE
STARLINK-1215 3.4 00:02:57 10° W 00:05:53 37° SSW 00:08:48 10° SE
STARLINK-1225 3.6 00:02:35 10° WSW 00:06:41 62° S 00:10:47 10° E
STARLINK-1217 3.4 00:04:44 10° W 00:07:38 36° SSW 00:10:33 10° SE
Cosmos 292 Rocket 4.4 00:03:39 13° SW 00:07:56 53° NW 00:12:43 10° NNE
STARLINK-1229 3.4 00:05:39 10° W 00:08:34 36° SSW 00:11:28 10° SE
Cosmos 1726 3.8 00:06:05 10° NW 00:08:55 21° W 00:10:54 14° SW
STARLINK-1271 3.6 00:05:08 10° W 00:09:13 58° S 00:13:18 10° ESE
STARLINK-1270 3.4 00:06:31 10° W 00:09:26 36° SSW 00:12:19 10° SE
Cosmos 2058 Rocket 3.0 00:05:53 10° NNW 00:10:19 82° W 00:13:46 17° S
Lacrosse 4 Rocket 3.8 00:06:39 10° NNW 00:10:28 27° NNE 00:14:13 10° E
STARLINK-1189 3.4 00:08:21 10° W 00:11:15 35° SSW 00:14:09 10° SE
Meteor 1-29 2.9 00:07:58 10° NNE 00:11:25 79° ESE 00:13:32 21° S
STARLINK-1230 3.6 00:07:32 10° WSW 00:11:39 63° S 00:15:45 10° E
GEOS 3 Rocket 4.1 00:07:39 14° SSE 00:11:44 41° SW 00:16:44 10° NW
STARLINK-1188 3.4 00:09:14 10° W 00:12:08 35° SSW 00:15:01 10° SE
STARLINK-1235 3.6 00:09:58 10° W 00:12:45 31° SSW 00:15:32 10° SE
Cosmos 2228 3.5 00:08:42 10° NNW 00:12:47 44° W 00:15:32 19° SSW
STARLINK-1187 3.5 00:10:22 10° W 00:13:11 32° SSW 00:16:01 10° SE
STARLINK-1154 3.6 00:10:07 10° W 00:14:11 57° SSW 00:18:15 10° ESE
SJ 16-02 2.8 00:10:07 10° NNW 00:14:17 38° NE 00:18:26 10° ESE
STARLINK-1191 3.4 00:11:44 10° W 00:14:35 34° SSW 00:17:26 10° SE
STARLINK-1221 3.5 00:12:35 10° W 00:15:27 33° SSW 00:18:18 10° SE
COSMOS 2455 3.2 00:11:40 17° SSW 00:16:12 54° ESE 00:22:05 10° NE
STARLINK-1222 3.5 00:13:29 10° W 00:16:20 33° SSW 00:19:11 10° SE
STARLINK-1243 3.6 00:12:30 10° WSW 00:16:36 63° S 00:20:43 10° E
Cosmos 1953 4.2 00:14:20 10° NW 00:17:06 18° W 00:19:26 12° SW
STARLINK-1214 3.5 00:14:24 10° W 00:17:15 33° SSW 00:20:05 10° SE
Cosmos 2263 4.4 00:12:25 13° SW 00:17:30 70° NW 00:23:08 10° NNE
Cosmos 1340 Rocket 4.5 00:15:46 10° NW 00:18:51 21° W 00:21:08 14° SW
STARLINK-1197 3.6 00:15:05 10° W 00:19:09 56° SSW 00:23:13 10° ESE
SL-14 R/B 3.5 00:18:39 17° S 00:21:28 62° E 00:25:18 10° NNE
STARLINK-1236 3.6 00:17:28 10° WSW 00:21:35 64° S 00:25:42 10° E
Cosmos 1300 2.6 00:18:17 10° NNW 00:22:08 80° W 00:25:04 16° S
IRAS Rocket 4.4 00:17:53 15° S 00:22:33 61° WSW 00:28:06 10° NNW
STARLINK-1198 3.7 00:20:02 10° W 00:24:05 54° SSW 00:28:08 10° ESE
Okean 1-7 Rocket 3.6 00:22:03 17° S 00:25:27 81° E 00:30:00 10° NNE
Cosmos 1174 4.1 00:23:33 20° S 00:25:28 42° SE 00:29:07 10° NE
COSMOS 2487 3.9 00:23:04 10° NW 00:25:51 22° WSW 00:27:18 17° SW
BREEZE M DEB (TANK) 3.4 00:26:49 19° SSE 00:26:49 19° SSE 00:28:34 10° SE
Cosmos 921 Rocket 3.9 00:23:34 14° SSE 00:26:48 38° ESE 00:30:51 10° NE
STARLINK-1199 3.7 00:25:02 10° W 00:29:05 53° SSW 00:33:08 10° ESE
Cosmos 2219 3.3 00:25:24 10° NNW 00:31:09 84° ENE 00:36:48 10° SE
STARLINK-1269 3.6 00:27:23 10° W 00:31:30 64° S 00:35:37 10° E
Cosmos 1626 Rocket 4.3 00:29:36 12° SSE 00:33:21 46° E 00:37:32 10° NNE
STARLINK-1210 3.7 00:30:00 10° W 00:34:02 51° SSW 00:38:03 10° ESE
STARLINK-1200 3.6 00:32:23 10° W 00:36:29 64° S 00:40:37 10° E
Cosmos 1626 2.1 00:34:31 18° SSW 00:37:14 88° W 00:40:59 10° NNE
STARLINK-60 4.4 00:36:26 18° S 00:37:35 22° SSE 00:40:09 10° E
STARLINK-1219 3.8 00:34:58 10° W 00:39:00 50° SSW 00:43:00 10° ESE
Cosmos 1656 Rocket 3.9 00:33:51 12° SW 00:39:03 67° NW 00:44:39 10° NNE
Nadezhda 1 Rocket 4.0 00:33:18 10° NNW 00:39:28 86° W 00:45:42 10° S
STARLINK-1192 3.6 00:37:21 10° W 00:41:28 64° S 00:45:35 10° E
FALCON 9 R/B 4.3 00:38:25 14° SSW 00:43:27 23° SSE 00:57:28 10° ESE
STARLINK-1211 3.8 00:39:56 10° W 00:43:57 48° SSW 00:47:56 10° ESE
STARLINK-1244 3.6 00:42:18 10° W 00:46:25 64° S 00:50:32 10° E
Cosmos 2297 Rocket 2.2 00:41:06 10° NW 00:46:48 88° ENE 00:52:28 10° SSE
MOZ.5/SAFIR/RUBIN 5/SL-8 3.8 00:44:15 12° S 00:48:32 65° WSW 00:53:10 10° NNW
UNK 3.7 00:44:09 10° SSE 00:48:47 81° WSW 00:53:25 10° NNW
STARLINK-1245 3.8 00:44:56 10° W 00:48:55 46° SSW 00:52:54 10° SE
ERBS 2.7 00:45:51 10° WNW 00:49:10 64° N 00:52:30 10° E
Cosmos 1812 Rocket 3.7 00:45:02 10° N 00:49:33 80° ENE 00:54:01 10° SSE
CZ-4B R/B 4.4 00:45:01 10° NNE 00:49:54 43° E 00:54:52 10° S
Cosmos 2082 4.4 00:44:42 10° NNW 00:50:20 59° NE 00:55:55 10° SE
STARLINK-1138 3.6 00:47:17 10° W 00:51:24 64° S 00:55:30 10° ESE
SL-4 R/B 3.2 00:49:12 14° SSW 00:52:38 33° SSE 00:56:50 10° E
STARLINK-1233 3.9 00:49:54 10° W 00:53:52 45° SSW 00:57:50 10° SE
STARLINK-1203 3.6 00:49:52 10° W 00:54:02 64° S 00:58:12 10° ESE
Cosmos 990 Rocket 4.3 00:49:18 10° NNW 00:54:36 74° ENE 00:59:51 10° SE
Cosmos 1437 2.5 00:52:48 17° S 00:55:02 84° ESE 00:58:04 10° NNE
SL-19 R/B 4.3 00:49:42 10° NNE 00:55:02 75° WNW 01:00:03 13° SSW
Cosmos 1674 4.2 00:53:21 11° WSW 00:56:21 25° WNW 00:59:33 10° N
STARLINK-1143 3.6 00:52:15 10° W 00:56:22 63° S 01:00:29 10° ESE
Timation 2 Rocket 4.5 00:52:27 10° NW 00:58:25 41° WSW 01:04:07 10° S
STARLINK-1204 3.9 00:54:53 10° W 00:58:50 43° SSW 01:02:47 10° SE
ATLAS CENTAUR R/B 1.4 00:56:56 14° SW 01:00:38 71° SE 01:04:41 10° NE
STARLINK-1241 3.6 00:57:13 10° W 01:01:20 63° S 01:05:26 10° ESE
Cosmos 2263 Rocket 4.4 00:57:01 10° NNW 01:01:59 30° NE 01:06:53 10° E
SL-16 R/B 2.6 00:56:36 10° S 01:02:42 65° WSW 01:08:52 10° NNW
BREEZE-M R/B 4.4 01:01:07 13° SSW 01:03:06 17° SSE 01:05:15 10° ESE
NOSS 3-4 (A) 3.5 00:57:37 10° SW 01:03:41 87° NW 01:10:20 10° NE
STARLINK-1238 4.0 00:59:50 10° W 01:03:46 42° SSW 01:07:41 10° SE
NOSS 3-4 (C) 3.5 00:57:42 10° SW 01:03:47 87° NW 01:10:26 10° NE
Cosmos 1455 2.4 01:00:49 10° N 01:04:35 68° ENE 01:08:18 10° SSE
ATLAS 3B R/B 3.5 00:59:59 10° WNW 01:05:47 31° WSW 01:11:43 10° S
Cosmos 1602 Rocket 3.7 01:01:58 11° S 01:06:05 73° E 01:10:25 10° NNE
STARLINK-1239 3.6 01:02:12 10° W 01:06:18 62° S 01:10:24 10° ESE
STARLINK-1201 4.0 01:04:51 10° W 01:08:45 40° SSW 01:12:38 10° SE
CENTAUR R/B 4.4 01:03:20 10° WNW 01:09:01 21° WSW 01:14:47 11° SSW
GP-B 3.6 01:06:16 10° N 01:10:41 59° E 01:15:05 10° SSE
STARLINK-1240 3.6 01:07:10 10° W 01:11:16 62° S 01:15:22 10° ESE
Meteor 2-1 Rocket 4.2 01:06:17 10° NNW 01:11:46 67° W 01:17:14 10° S
STARLINK-1206 4.1 01:09:49 10° W 01:13:42 38° SSW 01:17:33 10° SE
BREEZE-M DEB (TANK) 2.6 01:12:38 14° SSW 01:13:58 21° S 01:15:52 10° ESE
Cosmos-2242 3.4 01:09:52 10° N 01:14:09 66° ENE 01:18:23 10° SSE
STARLINK-1216 3.6 01:12:09 10° W 01:16:14 61° S 01:20:20 10° ESE
Cosmos 1400 Rocket 4.4 01:12:29 10° N 01:16:20 37° ENE 01:20:11 10° SE
STARLINK-1205 4.1 01:14:48 10° W 01:18:38 37° SSW 01:22:28 10° SE
Cosmos 1745 Rocket 4.0 01:12:45 11° SSW 01:18:45 74° WNW 01:24:55 10° N
Cosmos 2181 Rocket 4.2 01:14:09 10° N 01:20:35 81° ENE 01:27:03 10° SSE
STARLINK-1237 3.6 01:17:07 10° W 01:21:13 60° S 01:25:18 10° ESE
Cosmos 1356 Rocket 4.2 01:18:19 10° NNW 01:22:05 34° W 01:25:49 10° SSW
Cosmos 2227 Rocket 2.2 01:16:43 10° NW 01:22:22 65° WSW 01:27:58 10° SSE
RESURS DK-1 2.4 01:19:17 12° SW 01:23:09 89° SE 01:27:20 10° NE
STARLINK-1218 4.2 01:19:47 10° W 01:23:35 35° SSW 01:27:22 10° SE
SL-08 R/B 3.7 01:19:23 10° SSE 01:24:01 65° ENE 01:28:37 10° NNW
CZ-2D R/B 2.1 01:19:29 10° NNE 01:24:49 87° WNW 01:30:03 10° SSW
Helios 1B rocket 4.4 01:22:01 10° N 01:24:59 19° NW 01:27:57 10° WSW
STARLINK-1202 3.7 01:22:06 10° W 01:26:12 59° S 01:30:16 10° ESE
Meteor 1-24 Rocket 4.3 01:22:03 10° SW 01:27:06 43° WNW 01:32:18 10° N
ADEOS II 2.9 01:22:19 10° NNE 01:27:26 48° E 01:32:31 10° S
STARLINK-1254 4.2 01:24:47 10° W 01:28:32 34° SSW 01:32:18 10° SE
Cosmos 2369 Rocket 3.9 01:23:48 10° W 01:28:40 28° NNW 01:33:30 10° NNE
Cosmos 1697 Rocket 4.2 01:25:03 10° SSE 01:29:54 30° ESE 01:34:46 10° NE
Cosmos 1703 4.1 01:27:51 10° S 01:31:40 49° E 01:35:31 10° NNE
ATLAS 2AS CENTAUR R/B 3.3 01:24:51 10° WSW 01:32:53 71° NNW 01:40:42 10° NE
STARLINK-1231 4.3 01:29:47 10° W 01:33:31 32° SSW 01:37:13 10° SE
Resurs 1-4 Rocket 2.2 01:29:17 10° NNE 01:34:34 74° WNW 01:39:51 10° SSW
STARLINK-1246 3.7 01:32:02 10° W 01:36:07 56° SSW 01:40:10 10° ESE
STARLINK-1232 4.4 01:34:47 10° W 01:38:27 31° SSW 01:42:07 10° SSE
ARIANE 5 R/B 3.7 01:34:45 10° NNE 01:39:32 39° E 01:44:13 10° SSE
Cosmos 1943 Rocket 4.2 01:35:13 10° WNW 01:39:34 23° NNW 01:43:58 10° NNE
STARLINK-1224 3.7 01:37:01 10° W 01:41:04 55° SSW 01:45:08 10° ESE
NPP 3.8 01:36:35 10° NNE 01:42:00 75° WNW 01:47:22 10° SSW
USA 81 4.2 01:36:50 10° SSW 01:42:06 69° W 01:47:24 10° N
STARLINK-52 4.1 01:39:43 10° SW 01:42:33 28° SSE 01:45:22 10° E
STARLINK-1208 4.4 01:39:45 10° W 01:43:23 29° SSW 01:47:00 10° SSE
Cosmos 1758 Rocket 3.6 01:40:08 10° S 01:44:29 84° E 01:48:53 10° NNE
STARLINK-1225 3.8 01:42:00 10° W 01:46:03 53° SSW 01:50:06 10° ESE
H-2A R/B 2.8 01:42:26 10° SSE 01:46:42 58° ENE 01:51:05 10° N
Cosmos 1898 Rocket 3.8 01:42:12 10° NW 01:47:24 52° WSW 01:52:33 10° S
STARLINK-1271 4.5 01:44:47 10° W 01:48:21 28° SSW 01:51:54 10° SSE
Lacrosse 4 Rocket 1.5 01:45:15 10° NW 01:49:41 83° SW 01:53:57 10° SE
STARLINK-1230 3.8 01:46:58 10° W 01:51:01 52° SSW 01:55:02 10° ESE
Starlink 7 placeholder 2.6 01:49:54 10° WSW 01:51:43 32° S 01:53:35 10° E
IDEFIX/ARIANE 42P 4.3 01:48:07 10° NNE 01:52:46 30° E 01:57:22 10° SSE
Cosmos 2285 Rocket 4.1 01:46:29 10° NNW 01:52:52 71° WSW 01:59:10 10° SSE
SJ 16-02 2.0 01:48:48 10° NW 01:52:53 37° WSW 01:56:57 10° S
Meteor 1-21 Rocket 4.3 01:47:34 10° SSW 01:53:10 75° WNW 01:58:54 10° NNE
Cosmos 2084 Rocket 4.1 01:49:02 10° NW 01:53:28 65° NNE 01:57:56 10° ESE
Cosmos 1656 4.0 01:49:08 10° SSW 01:54:46 68° ESE 02:00:21 10° NE
STARLINK-1243 3.8 01:51:57 10° W 01:55:59 50° SSW 01:59:59 10° ESE
CZ-4C R/B 3.5 01:52:09 10° S 01:56:43 32° ESE 02:02:02 10° ENE
